OK1PHU-6 Weather Reports


Display with metric or nautical units.
time (UTC)temp
F
wind
direction
speed
MPH
gust
MPH
rain 1hr
in
rain 24hr
in
rain mn
in
humidity
%
barometer
mb
20220810000427 0 45 0.0 0.0 0.00 0.00 0.00 1026.1
20220809235427 0 45 0.0 0.0 0.00 0.00 0.00 1026.1
20220809234427 0 45 0.0 0.0 0.00 0.00 0.00 1026.1
20220809233427 0 45 0.0 0.0 0.00 0.00 0.00 1026.1
20220809232427 0 45 0.0 2.0 0.00 0.00 0.00 1026.3
20220809231424 0 45 0.0 2.0 0.00 0.00 0.00 1026.3
20220809230424 0 45 1.0 2.0 0.00 0.00 0.00 42 1026.2
20220809225423 0 45 1.0 2.0 0.00 0.00 0.00 43 1026.1
20220809224424 0 0 0.0 0.0 0.00 0.00 0.00 43 1026.1
20220809223423 0 0 0.0 0.0 0.00 0.00 0.00 42 1026.1
20220809222424 0 315 0.0 0.0 0.00 0.00 0.00 41 1026.1
20220809221420 0 315 0.0 0.0 0.00 0.00 0.00 43 1026.0
20220809220420 0 45 0.0 0.0 0.00 0.00 0.00 44 1026.0
20220809215420 0 45 0.0 1.0 0.00 0.00 0.00 46 1026.0
20220809214420 0 45 0.0 2.0 0.00 0.00 0.00 45 1025.9
20220809213420 0 45 0.0 0.0 0.00 0.00 0.00 44 1026.0
20220809212420 0 45 0.0 1.0 0.00 0.00 0.00 45 1025.9
20220809211417 0 45 1.0 1.0 0.00 0.00 0.00 45 1025.7
20220809210417 0 45 0.0 1.0 0.00 0.00 0.00 44 1025.8
20220809205417 0 45 1.0 1.0 0.00 0.00 0.00 43 1025.6
20220809204417 0 0 1.0 1.0 0.00 0.00 0.00 43 1025.7
20220809203417 0 0 0.0 1.0 0.00 0.00 0.00 42 1025.7
20220809202417 0 0 0.0 1.0 0.00 0.00 0.00 41 1025.5
20220809200822 0 270 0.0 0.0 0.00 0.00 0.00 40 1025.3
20220809195822 0 0 0.0 1.0 0.00 0.00 0.00 40 1025.3
20220809194822 0 90 1.0 3.0 0.00 0.00 0.00 39 1025.2
20220809193819 0 90 3.0 3.0 0.00 0.00 0.00 38 1025.2
20220809192819 0 45 1.0 4.0 0.00 0.00 0.00 36 1025.0
20220809191819 0 45 2.0 3.0 0.00 0.00 0.00 34 1024.9
20220809190819 0 45 2.0 2.0 0.00 0.00 0.00 32 1024.7
20220809185819 0 45 1.0 3.0 0.00 0.00 0.00 29 1024.4
20220809184819 0 45 2.0 3.0 0.00 0.00 0.00 25 1024.3
20220809183816 0 45 1.0 3.0 0.00 0.00 0.00 23 1024.0
20220809182815 0 0 0.0 2.0 0.00 0.00 0.00 20 1023.9
20220809181815 0 45 2.0 5.0 0.00 0.00 0.00 19 1023.7
20220809180815 0 67 1.0 3.0 0.00 0.00 0.00 18 1023.6
20220809175815 0 45 4.0 4.0 0.00 0.00 0.00 18 1023.4
20220809174815 0 315 0.0 5.0 0.00 0.00 0.00 18 1023.5
20220809173812 0 22 2.0 9.0 0.00 0.00 0.00 17 1023.4
20220809172812 0 0 2.0 4.0 0.00 0.00 0.00 17 1023.4
20220809171812 0 337 2.0 8.0 0.00 0.00 0.00 16 1023.3
20220809170812 0 45 3.0 9.0 0.00 0.00 0.00 15 1023.3
20220809165812 0 315 4.0 9.0 0.00 0.00 0.00 15 1023.3
20220809164812 0 0 5.0 8.0 0.00 0.00 0.00 15 1023.1
20220809163809 0 270 1.0 9.0 0.00 0.00 0.00 15 1023.1
20220809162809 0 0 3.0 9.0 0.00 0.00 0.00 15 1023.1
20220809161809 0 315 5.0 9.0 0.00 0.00 0.00 15 1023.0
20220809160809 0 315 1.0 9.0 0.00 0.00 0.00 14 1023.1
20220809155809 0 0 3.0 10.0 0.00 0.00 0.00 14 1023.0
20220809154809 0 337 10.0 11.0 0.00 0.00 0.00 12 1023.0
20220809152806 0 90 2.0 9.0 0.00 0.00 0.00 11 1022.9
20220809151806 0 0 8.0 11.0 0.00 0.00 0.00 10 1022.9
20220809150806 0 45 3.0 11.0 0.00 0.00 0.00 11 1023.0
20220809145806 0 315 0.0 8.0 0.00 0.00 0.00 11 1023.0
20220809144806 0 45 4.0 9.0 0.00 0.00 0.00 10 1023.0
20220809143802 0 45 3.0 7.0 0.00 0.00 0.00 14 1023.0
20220809142802 0 0 5.0 8.0 0.00 0.00 0.00 11 1023.1
20220809141802 0 315 6.0 10.0 0.00 0.00 0.00 12 1023.1
20220809140802 0 0 7.0 10.0 0.00 0.00 0.00 11 1023.0
20220809135802 0 315 6.0 10.0 0.00 0.00 0.00 10 1022.9
20220809134802 0 0 1.0 10.0 0.00 0.00 0.00 12 1023.0
20220809133744 0 135 2.0 9.0 0.00 0.00 0.00 11 1023.0
20220809132744 0 0 3.0 7.0 0.00 0.00 0.00 12 1023.0
20220809131744 0 315 3.0 8.0 0.00 0.00 0.00 11 1023.2
20220809130744 0 0 4.0 7.0 0.00 0.00 0.00 11 1023.1
20220809125744 0 0 1.0 9.0 0.00 0.00 0.00 10 1023.0
20220809124744 0 315 0.0 11.0 0.00 0.00 0.00 13 1023.0
20220809123233 0 45 2.0 9.0 0.00 0.00 0.00 14 1023.0
20220809122233 0 315 3.0 9.0 0.00 0.00 0.00 14 1023.3
20220809121230 0 0 3.0 11.0 0.00 0.00 0.00 12 1023.1
20220809120230 0 90 3.0 8.0 0.00 0.00 0.00 19 1023.3
20220809115230 0 315 0.0 9.0 0.00 0.00 0.00 15 1023.4
20220809114229 0 0 3.0 8.0 0.00 0.00 0.00 15 1023.4
20220809113229 0 45 4.0 6.0 0.00 0.00 0.00 14 1023.3
20220809112229 0 45 5.0 9.0 0.00 0.00 0.00 14 1023.2
20220809111226 0 337 3.0 8.0 0.00 0.00 0.00 16 1023.4
20220809110226 0 0 3.0 8.0 0.00 0.00 0.00 15 1023.7
20220809105226 0 337 3.0 8.0 0.00 0.00 0.00 14 1023.5
20220809104226 0 90 5.0 8.0 0.00 0.00 0.00 17 1023.4
20220809103226 0 0 2.0 14.0 0.00 0.00 0.00 19 1023.4
20220809102226 0 0 3.0 10.0 0.00 0.00 0.00 15 1023.7
20220809100406 0 0 6.0 11.0 0.00 0.00 0.00 18 1023.7
20220809095406 0 0 2.0 11.0 0.00 0.00 0.00 20 1023.9
20220809094406 0 0 2.0 15.0 0.00 0.00 0.00 19 1023.8
20220809093406 0 0 3.0 11.0 0.00 0.00 0.00 19 1023.9
20220809092406 0 45 4.0 18.0 0.00 0.00 0.00 19 1023.9
20220809091406 0 0 12.0 16.0 0.00 0.00 0.00 20 1023.9
20220809090345 0 337 8.0 11.0 0.00 0.00 0.00 21 1023.9
20220809085345 0 315 3.0 8.0 0.00 0.00 0.00 26 1023.9
20220809084345 0 0 2.0 8.0 0.00 0.00 0.00 26 1024.2
20220809083345 0 45 4.0 9.0 0.00 0.00 0.00 28 1024.1
20220809082345 0 337 7.0 12.0 0.00 0.00 0.00 31 1024.2
20220809081345 0 315 4.0 6.0 0.00 0.00 0.00 34 1024.2
20220809080056 0 315 1.0 6.0 0.00 0.00 0.00 35 1024.3
20220809075056 0 337 5.0 6.0 0.00 0.00 0.00 34 1024.4
20220809074056 0 315 5.0 8.0 0.00 0.00 0.00 36 1024.4
20220809073056 0 315 5.0 8.0 0.00 0.00 0.00 36 1024.4
20220809072056 0 0 3.0 7.0 0.00 0.00 0.00 38 1024.4
20220809071056 0 315 3.0 6.0 0.00 0.00 0.00 40 1024.4
20220809065833 0 0 1.0 5.0 0.00 0.00 0.00 44 1024.4
20220809064833 0 315 2.0 5.0 0.00 0.00 0.00 46 1024.7
20220809063833 0 270 3.0 3.0 0.00 0.00 0.00 48 1024.6
20220809062833 0 270 1.0 2.0 0.00 0.00 0.00 48 1024.7
20220809061833 0 270 1.0 2.0 0.00 0.00 0.00 42 1024.9
20220809060830 0 315 0.0 3.0 0.00 0.00 0.00 10 1024.8
20220809055830 0 270 1.0 1.0 0.00 0.00 0.00 10 1025.0
20220809054830 0 45 0.0 0.0 0.00 0.00 0.00 10 1025.0
20220809053830 0 90 0.0 0.0 0.00 0.00 0.00 10 1025.1
20220809052830 0 90 0.0 2.0 0.00 0.00 0.00 1025.1
20220809051830 0 45 1.0 2.0 0.00 0.00 0.00 10 1025.2
20220809045826 0 45 0.0 0.0 0.00 0.00 0.00 10 1025.4
20220809044826 0 45 0.0 2.0 0.00 0.00 0.00 10 1025.4
20220809043826 0 45 0.0 1.0 0.00 0.00 0.00 10 1025.3
20220809042826 0 45 1.0 2.0 0.00 0.00 0.00 10 1025.3
20220809041826 0 45 1.0 2.0 0.00 0.00 0.00 10 1025.2
20220809040823 0 45 2.0 2.0 0.00 0.00 0.00 10 1025.2
20220809035823 0 90 2.0 2.0 0.00 0.00 0.00 10 1025.1
20220809034823 0 45 1.0 2.0 0.00 0.00 0.00 10 1025.3
20220809033823 0 45 2.0 3.0 0.00 0.00 0.00 10 1025.2
20220809032823 0 45 2.0 2.0 0.00 0.00 0.00 10 1025.1
20220809031823 0 45 1.0 1.0 0.00 0.00 0.00 10 1025.1
20220809030820 0 45 1.0 3.0 0.00 0.00 0.00 10 1025.0
20220809025820 0 45 1.0 1.0 0.00 0.00 0.00 10 1025.0
20220809024820 0 45 1.0 2.0 0.00 0.00 0.00 10 1025.1
20220809023820 0 90 2.0 2.0 0.00 0.00 0.00 10 1025.0
20220809022820 0 45 1.0 3.0 0.00 0.00 0.00 10 1025.0
20220809021820 0 45 1.0 2.0 0.00 0.00 0.00 10 1025.1
20220809020817 0 45 1.0 2.0 0.00 0.00 0.00 10 1024.9
20220809015817 0 45 2.0 3.0 0.00 0.00 0.00 10 1024.9
20220809014817 0 45 2.0 2.0 0.00 0.00 0.00 10 1024.9
20220809013817 0 45 1.0 2.0 0.00 0.00 0.00 10 1024.9
20220809012817 0 45 2.0 2.0 0.00 0.00 0.00 10 1024.8
20220809011817 0 45 0.0 1.0 0.00 0.00 0.00 10 1024.7
20220809005813 0 45 1.0 2.0 0.00 0.00 0.00 10 1024.6
20220809004813 0 45 1.0 1.0 0.00 0.00 0.00 10 1024.7
20220809003813 0 45 1.0 2.0 0.00 0.00 0.00 1024.7
20220809002813 0 45 1.0 2.0 0.00 0.00 0.00 1024.6
20220809001813 0 45 2.0 2.0 0.00 0.00 0.00 14 1024.6